Other Public Products
Issued by NWS Grand Forks, ND

Home | Current Version | Previous Version | Text Only | Print | Product List | Glossary Off
Versions: 1 2 3 4 5 6 7 8 9 10 11 12 13 14 15 16 17 18 19 20 21 22 23 24 25 26 27 28 29 30 31 32 33 34 35 36 37 38 39 40 41 42 43 44 45 46 47 48 49 50

000
FPUS83 KFGF 202331
OPUFGF
PRAIRIE TO PINES WEATHER ROUNDUP
NATIONAL WEATHER SERVICE EASTERN NORTH DAKOTA/GRAND FORKS ND
600 PM CDT MON APR 20 2015

 **SATELLITE DATA USED TO AUGMENT SKY COVER AT AUTOMATED STATIONS**
 *****  WEATHER ACROSS EASTERN NORTH DAKOTA  *****

CITY           SKY/WX    TMP DP  RH WIND       PRES   REMARKS
GRAND FORKS    CLOUDY    37  32  82 NW26G36   29.61S
GRAND FORKS AF CLOUDY    37  30  75 N25G32    29.62R
GRAND CITY NWS   N/A     36 N/A N/A N14         N/A
BUXTON           N/A     37  35  93 CALM        N/A
DEVILS LAKE    CLOUDY    41  27  56 N21G33    29.67R
FARGO          LGT RAIN  38  33  82 NW24G35   29.62R
WAHPETON ARPT  CLOUDY    37  32  81 NW24G33   29.62S
$$

 *****  WEATHER ACROSS CENTRAL AND WESTERN NORTH DAKOTA  *****

CITY           SKY/WX    TMP DP  RH WIND       PRES   REMARKS
JAMESTOWN      CLOUDY    43  24  47 N31G38    29.66S
BISMARCK       SUNNY     52   4  14 NW31G39   29.75S
MINOT          SUNNY     50   6  16 NW29G37   29.74S
MINOT AFB      SUNNY     51   7  17 NW24G37   29.73S
GARRISON         N/A     52   8  17 NW28G40   29.75R
WILLISTON      SUNNY     55  15  20 NW21G29   29.83F
DICKINSON      PTSUNNY   49  13  23 N21G28    29.80S
HETTINGER      CLOUDY    49  13  23 NW18G31   29.82S
$$

 *****  OTHER OBSERVATIONS NORTHEAST NORTH DAKOTA  *****

CITY           SKY/WX    TMP DP  RH WIND       PRES   REMARKS
WALHALLA       CLOUDY    37  32  81 NW18G28   29.64S
LANGDON        CLOUDY    37  28  70 N30G39    29.64R
CAVALIER       CLOUDY    36  32  87 N16G23    29.63S
GRAFTON        DRIZZLE   34  34 100 NW20G25   29.63R WCI  22
CANDO          CLOUDY    45  27  49 N28G36    29.69R
FORT TOTTEN      N/A     40  27  60 NW13      29.95
ROLLA          CLOUDY    39  27  60 N26G32    29.69S
RUGBY          NOT AVBL
 ***** THE ABOVE OBSERVATIONS ARE NON NWS ARE NOT QUALITY
        CONTROLLED AND MAY MIS-REPORT RAIN FOR SNOW...
$$

 *****  OTHER OBSERVATIONS SOUTHEAST NORTH DAKOTA *****

CITY           SKY/WX    TMP DP  RH WIND       PRES   REMARKS
COOPERSTOWN    NOT AVBL
VALLEY CITY    CLOUDY    39  28  65 N26G33    29.66R
OAKES            N/A     43  25  49 NW32G39   29.66S
GWINNER        CLOUDY    43  28  56 NW31G39   29.67R
BUFFALO        NOT AVBL
WYNDMERE       NOT AVBL
 ***** THE ABOVE OBSERVATIONS ARE NON NWS ARE NOT QUALITY
       CONTROLLED AND MAY MIS-REPORT RAIN FOR SNOW...
$$

  *****  WEATHER ACROSS NORTHERN MINNESOTA  *****

CITY           SKY/WX    TMP DP  RH WIND       PRES   REMARKS
FLAG ISLAND    LGT SNOW  34  30  86 NW25G32   29.43R WCI  21
WARROAD        CLOUDY    36  28  75 NW20G30   29.48R
ROSEAU         CLOUDY    36  28  75 NW21G29   29.50R
HALLOCK        CLOUDY    36  30  80 NW24G32   29.58S
THF RVR FALLS  CLOUDY    34  28  80 NW28      29.55R WCI  20
HALSTAD          N/A     36  32  85 N29         N/A
FOSSTON        LGT SNOW  32  28  86 NW21G32   29.54R WCI  20
BAUDETTE       LGT SNOW  34  30  85 NW21G29   29.42R FOG     WCI  22
WASKISH        FLURRIES  36  30  80 NW20G28   29.44R
CROOKSTON      MIX PCPN  34  34 100 N25G35    29.60R WCI  21
$$
  *****  WEATHER ACROSS CENTRAL AND WEST MINNESOTA  *****

CITY           SKY/WX    TMP DP  RH WIND       PRES   REMARKS
BEMIDJI        LGT SNOW  33  31  92 W15       29.47S WCI  22
PARK RAPIDS    LGT RAIN  41  28  60 NW20G32   29.49R
WADENA         MIX PCPN  34  30  86 NW20G29   29.52S WCI  22
DETROIT LAKES  LGT SNOW  32  32 100 NW22G30   29.57R WCI  19
MOORHEAD       PTSUNNY   36  34  93 NW29      29.62S
FERGUS FALLS   PTSUNNY   36  34  93 NW24G35   29.61S
ELBOW LAKE     LGT RAIN  35  34  94 NW21G35   29.59S WCI  24
MORRIS MN      PTSUNNY   39  34  81 NW29G40   29.59F
STAPLES        CLOUDY    36  28  75 NW20G25   29.51R
WHEATON        PTSUNNY   39  28  65 NW23G37   29.65R
$$
  *****  WEATHER ELSEWHERE ACROSS MINNESOTA  *****

CITY           SKY/WX    TMP DP  RH WIND       PRES   REMARKS
DULUTH         FLURRIES  34  26  72 W21G29    29.37R WCI  22
INTRNTL FALLS  FLURRIES  34  32  92 W12       29.35S
ELY            CLOUDY    30  27  86 W9        29.32S WCI  22
CLOQUET        FLURRIES  34  27  75 W18G25    29.40R WCI  23
BRAINERD       LGT SNOW  36  28  73 NW14      29.48R
HIBBING        FLURRIES  33  25  72 W13G21    29.38S WCI  24
ALEXANDRIA     CLOUDY    38  30  73 NW18G26   29.56S
SAINT CLOUD    LGT RAIN  39  28  64 NW21G36   29.51R
MINNEAPOLIS    CLOUDY    42  26  53 W23G30    29.52F
$$

  *****  WEATHER ACROSS SOUTH DAKOTA  *****

CITY           SKY/WX    TMP DP  RH WIND       PRES   REMARKS
SIOUX FALLS    MOSUNNY   53  16  23 NW26G41   29.66S
BROOKINGS      PTSUNNY   46  27  46 NW23G30   29.66S
WATERTOWN      CLOUDY    47  27  45 NW26G37   29.64S
HURON          SUNNY     54   4  13 NW32G41   29.69S
SISSETON         N/A     42  29  59 N29G35    29.63R
ABERDEEN       PTSUNNY   52  22  30 N22G36    29.70R
MITCHELL       SUNNY     56   0  10 NW31G46   29.72S
PIERRE         SUNNY     55   5  13 NW29G38   29.76S
MOBRIDGE       SUNNY     54   0  11 N28G40    29.73R
RAPID CITY     SUNNY     53  20  27 N29       29.83S
$$

  *****  SOME WEATHER IN NEARBY STATES *****

CITY           SKY/WX    TMP DP  RH WIND       PRES   REMARKS
GLASGOW MT     CLOUDY    59  16  18 NW10      29.84F
GREAT FALLS MT MOSUNNY   64  22  20 NW10      29.85F
CHEYENNE WY    SUNNY     47  20  34 N28G37    29.90F
SCOTTSBLUFF NE MOSUNNY   57  23  26 NW17G26   29.86F
OMAHA NE       MOSUNNY   57  18  21 NW25G32   29.74S
DES MOINES IA  MOSUNNY   57  14  18 NW23G37   29.68R
DAVENPORT IA   CLOUDY    46  37  71 W28       29.65R
CHICAGO IL     CLOUDY    46  33  60 W25G31    29.55R
EAU CLAIRE WI  CLOUDY    41  25  53 W17G30    29.46S
LA CROSSE WI   CLOUDY    45  29  53 W18G29    29.52R
$$

  *****  SOME NATIONAL WEATHER *****

CITY           SKY/WX    TMP DP  RH WIND       PRES   REMARKS
LA GUARDIA NY  FOG       50  49  96 NE7       29.65F VSB 1/4
RALEIGH NC     CLOUDY    71  62  73 S13       29.65S THUNDER
ATLANTA GA     MOSUNNY   73  54  51 W9        29.72R
NEW ORLEANS LA CLOUDY    74  54  49 NW13      29.87R
OKLAHOMA CITY  MOSUNNY   65  32  29 NW7       29.96S
ALBUQUERQUE NM PTSUNNY   68  22  17 NW6G16    29.89F
SALT LAKE CITY MOSUNNY   69  22  16 N10       29.88F
LOS ANGELES CA MOSUNNY   61  51  70 W17G24    29.86F
BOISE ID       SUNNY     72  26  18 N7        29.85F
SEATTLE WA     MOSUNNY   72  41  32 NW8       29.88F
$$

*** WEATHER ACROSS MANITOBA...SASKATCHEWAN AND ONTARIO ***
                ***ONTARIO***

CITY           SKY/WX    TMP DP  RH WIND       PRES   REMARKS
GERALDTON      LGT SNOW  32  32 100 N6        29.07F
THUNDER BAY    LGT RAIN  37  36  93 W15       29.20R
SIOUX LOOKOUT  LGT SNOW  34  32  93 N7        29.27R
TORONTO        PTSUNNY   59  54  82 SE5       29.38R
BIG TROUT LK   LGT SNOW  28  27  93 NE14G32   29.52R VSB 1   WCI  17
PICKLE LAKE    LGT SNOW  30  28  93 NE10G18   29.27R VSB 1   WCI  21
DRYDEN         LGT RAIN  36  34  93 NW7G18    29.29S
KENORA         LGT SNOW  34  32  93 NW16G24   29.39R FOG     WCI  23
$$
                *** MANITOBA***

CITY           SKY/WX    TMP DP  RH WIND       PRES   REMARKS
BRANDON        PTSUNNY   43  25  49 N29G39    29.73R
DAUPHIN        CLOUDY    39  28  65 N23       29.79R
ISLAND LAKE    LGT SNOW  32  30  93 N17G26    29.67R WCI  21
PILOT MOUND      N/A     37  28  70 N21G30      N/A
THE PAS        PTSUNNY   43  27  52 NE9G17    29.89R
THOMPSON       FLURRIES  36  28  75 NE15      29.94R
WINNIPEG       CLOUDY    34  28  80 N24G32    29.62S WCI  21
LYNN LAKE      SUNNY     45   9  23 N10G17    29.95S
CHURCHILL      PTSUNNY   25  21  86 N14       30.12R WCI  13
GILLAM         PTSUNNY   30  21  69 NE21G30   29.95R WCI  17
$$
                ***SASKATCHEWAN***

CITY           SKY/WX    TMP DP  RH WIND       PRES   REMARKS
ESTEVAN        MOSUNNY   50  10  20 NW23G31   29.81S
KINDERSLEY     MOSUNNY   63  21  20 NW16G26   29.76F
LLOYDMINSTER   MOSUNNY   61  19  20 NW13G25   29.77F
PRINCE ALBERT  LGT RAIN  36  32  87 E12G21    29.89
REGINA         MOSUNNY   52  18  25 N10       29.83F
YORKTON        SUNNY     48   7  18 NW22G28   29.80S


USA.gov is the U.S. government's official web portal to all federal, state and local government web resources and services.